Wetterdaten: aktuell Sonntag, 13.10.2019 22:40
Datum Zeit Temp. A. Feuchte A. Luftdruck Regen Wind Taupunkt Windchill Windben
13.10.2019 22:40 15,6 C 64 % 1015,5 hPa 0,0 l/m 3,8 km/h (1 Bft) 8,8 C 15,6 C 6,4 km/h (2 Bft)
13.10.2019 22:35 15,7 C 64 % 1015,5 hPa 0,0 l/m 3,8 km/h (1 Bft) 8,9 C 15,7 C 4,8 km/h (1 Bft)
13.10.2019 22:30 15,8 C 63 % 1015,5 hPa 0,0 l/m 2,9 km/h (1 Bft) 8,8 C 15,8 C 4,8 km/h (1 Bft)
13.10.2019 22:25 15,9 C 63 % 1015,5 hPa 0,0 l/m 3,2 km/h (1 Bft) 8,9 C 15,9 C 4,8 km/h (1 Bft)
13.10.2019 22:20 16,1 C 63 % 1015,5 hPa 0,0 l/m 2,9 km/h (1 Bft) 9,1 C 16,1 C 4,8 km/h (1 Bft)
13.10.2019 22:15 16,1 C 63 % 1015,5 hPa 0,0 l/m 3,1 km/h (1 Bft) 9,1 C 16,1 C 6,4 km/h (2 Bft)
13.10.2019 22:10 16,1 C 63 % 1015,5 hPa 0,0 l/m 4,9 km/h (1 Bft) 9,1 C 16,1 C 6,4 km/h (2 Bft)
13.10.2019 22:05 16,1 C 63 % 1015,5 hPa 0,0 l/m 4,5 km/h (1 Bft) 9,1 C 16,1 C 6,4 km/h (2 Bft)
13.10.2019 22:00 16,1 C 63 % 1015,6 hPa 0,0 l/m 4,2 km/h (1 Bft) 9,1 C 16,1 C 6,4 km/h (2 Bft)
13.10.2019 21:55 16,2 C 62 % 1015,5 hPa 0,0 l/m 4,3 km/h (1 Bft) 8,9 C 16,2 C 6,4 km/h (2 Bft)
13.10.2019 21:50 16,4 C 61 % 1015,6 hPa 0,0 l/m 3,5 km/h (1 Bft) 8,9 C 16,4 C 4,8 km/h (1 Bft)
13.10.2019 21:45 16,6 C 60 % 1015,5 hPa 0,0 l/m 4,4 km/h (1 Bft) 8,8 C 16,6 C 9,7 km/h (2 Bft)
13.10.2019 21:40 16,8 C 60 % 1015,5 hPa 0,0 l/m 5,0 km/h (1 Bft) 9,0 C 16,8 C 9,7 km/h (2 Bft)
13.10.2019 21:35 16,9 C 59 % 1015,5 hPa 0,0 l/m 5,1 km/h (1 Bft) 8,8 C 16,9 C 6,4 km/h (2 Bft)
13.10.2019 21:30 17,1 C 59 % 1015,5 hPa 0,0 l/m 4,9 km/h (1 Bft) 9,0 C 17,1 C 8,0 km/h (2 Bft)
13.10.2019 21:25 17,2 C 59 % 1015,4 hPa 0,0 l/m 4,7 km/h (1 Bft) 9,1 C 17,2 C 6,4 km/h (2 Bft)
13.10.2019 21:20 17,3 C 58 % 1015,3 hPa 0,0 l/m 4,4 km/h (1 Bft) 9,0 C 17,3 C 6,4 km/h (2 Bft)
13.10.2019 21:15 17,3 C 58 % 1015,4 hPa 0,0 l/m 4,9 km/h (1 Bft) 9,0 C 17,3 C 8,0 km/h (2 Bft)
13.10.2019 21:10 17,4 C 58 % 1015,3 hPa 0,0 l/m 4,8 km/h (1 Bft) 9,1 C 17,4 C 8,0 km/h (2 Bft)
13.10.2019 21:05 17,5 C 57 % 1015,3 hPa 0,0 l/m 3,2 km/h (1 Bft) 8,9 C 17,5 C 6,4 km/h (2 Bft)
13.10.2019 21:00 17,6 C 57 % 1015,2 hPa 0,0 l/m 4,6 km/h (1 Bft) 9,0 C 17,6 C 6,4 km/h (2 Bft)
_ Min-Zeit 07:20 16:25 17:10 - 07:10 07:05 07:25 07:10
Minimum _ 10,8 C 33 % 1014,0 hPa - 0,1 km/h (0 Bft) 7,6 C 10,8 C 1,6 km/h (1 Bft)
_ Max-Zeit 15:10 08:25 09:50 00:00 09:45 12:30 15:10 16:45
Maximum _ 26,3 C 89 % 1016,6 hPa 0,0 l/m 8,9 km/h
O (2 Bft)
15,0 C 26,3 C 20,9 km/h
SO (4 Bft)
Durchschnitt _ 17,5 C 64 % 1015,6 hPa #0,0 l/m 4,5 km/h (1 Bft) 9,9 C 17,4 C 9,3 km/h (2 Bft)